DECAYED

STARLINK-31173, 58802 (Decayed)

Orbit data source: Space-Track

STARLINK-31173, 58802 was a payload satellite owned by SpaceX/Seattle (US) in LEO that was launched on Mon, 15 Jan 2024 UTC via an FALCON 9 launch vehicle from the Air Force Eastern Test Range (AFETR). Payload-class satellites include a variety of spacecraft equipped with specific instruments for various scientific and technological missions. These include communications satellites like Starlink; space stations such as the ISS; scientific satellites like the Hubble; Earth observation satellites from companies like Planet Labs, Umbra, and HawkEye 360; GPS; miniature CubeSats for education and research; and military/defense satellites.

Not visible in the next 10 days
Identifier
58802, 2024-012R
Orbit
Decayed
Country
Flag of USUS
Related business
Manufacturer
SpaceX/Seattle
Mission
Decayed Commercial Communications
Bus & Motor
STARLINK V2M, Unknown motor
Mass
730 kg wet, ~700 kg dry
Launch date (UTC)
2024-01-15 (2 years ago)
Launch vehicle
FALCON 9
Launch site
Air Force Eastern Test Range (AFETR)
Object type
Payload
Rocket body
Debris
Shape & HBR
Box + 2 Pan, 17.7 m
Radar Cross Section
33.884 m², Large (>1 m²)

Expand to show TLE details & history
Last TLE update: 1 year ago

TLE from 1 year ago
0 STARLINK-31173
1 58802U 24012R   25069.23500069  .13265036  87056-5  68080-2 0  9990
2 58802  42.9838  16.0594 0013892 209.3843 293.6839 16.19233490 66040
Epoch: 2025-03-10T05:38Z
TLE epoch observation values (Epoch: 2025-03-10T05:38:24.059Z)
Latitude
24.35968°
Longitude
-85.57985°
Altitude
217.712 km
Speed
7.782 km/s
True Right ascension
11h 08m 42s
True Declination
24° 13' 13"
Sunlit
Object was in full shadow at epoch
Visualization orbit readout
Latitude
Unknown
Longitude
Unknown
Altitude
Unknown
Speed
Unknown
Apparent Right ascension
Unknown
Apparent Declination
Unknown
Sunlit
N/A
Visualization observer readout
Local Sidereal Time
21:28:02
Azimuth
Unknown
Elevation
Unknown
Doppler factor
Unknown
Orbital elements
Apogee altitude
232.83 km
Perigee altitude
214.487 km
Semi-major axis
6,601.796 km
Eccentricity
0.00139
Inclination
42.9838°
RAAN
16.0594°
Arg. of periapsis
209.3843°
True anomaly
293.53802°
Mean anomaly
293.6839°
Eccentric anomaly
293.61097°
Mean motion
4.04623 °/min
Orbital period
88.97 mins
BSTAR
0.006808
Loading maneuver chart data...
Computing Atmospheric mass density...
Loading historical data...
Loading historical data...
Loading historical data...
Loading historical data...
Loading historical data...
Loading historical data...
Loading historical data...

Documentation

Showing up to 5 results
|